COSMOS 2492 (754)

Last updated on July 6, 2021, 3:40 p.m. UTC

1 39620U 14012A   21186.92418157 -.00000050  00000-0  00000-0 0  9999
2 39620  65.8328  14.7436 0012106 334.3051 161.0912  2.13103192 56720
UTC
Height (km)
Latitude
Longitude
Inclination
Orbital Period
UTC large
Height (km)
Speed (km/s)
/
Latitude / Longitude
Inclination (degrees)
Orbital Period (minutes)
Azimuth
Elevation
Range (km)
Doppler Factor
iOS Compass Heading
iOS Angle